Regional Weather Roundup
Issued by NWS Jackson, KY

Home | Current Version | Previous Version | Graphics & Text | Print | Product List | Glossary On
Versions: 1 2 3 4 5 6 7 8 9 10 11 12 13 14 15 16 17 18 19 20 21 22 23 24 25 26 27 28 29 30 31 32 33 34 35 36 37 38 39 40 41 42 43 44 45 46 47 48 49 50
000
ASUS43 KJKL 061810
RWRJKL

EAST KENTUCKY HOURLY WEATHER ROUNDUP
NATIONAL WEATHER SERVICE JACKSON KY
200 PM EDT MON JUL 06 2015

NOTE: "FAIR" INDICATES FEW OR NO CLOUDS BELOW 12,000 FEET WITH
NO SIGNIFICANT WEATHER AND/OR OBSTRUCTIONS TO VISIBILITY.

* THESE REPORTS ARE NOT UNDER NWS QUALITY CONTROL AND MAY NOT
  REPORT WEATHER SUCH AS PRECIPITATION AND FOG.

KYZ079-080-083-085-087-088-110-112-115-119-120-061900
...EASTERN KENTUCKY...

CITY           SKY/WX    TMP DP  RH WIND       PRES   REMARKS
JACKSON        MOSUNNY   77  67  71 CALM      30.15S
6HR MIN TEMP:  66; 6HR MAX TEMP:  80; 6HR PCP: TRACE;

LONDON         MOSUNNY   79  65  62 SW7       30.15F
6HR MIN TEMP:  67; 6HR MAX TEMP:  79;

SOMERSET*      MOSUNNY   79  64  61 W8        30.14F
MONTICELLO*    SUNNY     83  72  69 SW6       30.16F
6HR MIN TEMP:  66; 6HR MAX TEMP:  83;

MIDDLESBORO*   PTSUNNY   82  68  60 W7        30.15S
6HR MIN TEMP:  64; 6HR MAX TEMP:  82;

HARLAN APT*      N/A     79  61  53 MISG      30.16F
HAZARD APT*    MOCLDY    79  66  65 W7        30.15
BLACK MTN*       N/A     64  61  88 S2          N/A
PIKEVILLE APT* PTSUNNY   73  68  83 SW5       30.15S
BIG SANDY*     MOCLDY    78  69  71 NW3       30.13F
6HR MIN TEMP:  67; 6HR MAX TEMP:  78;

MOREHEAD APT*  PTCLDY    81  66  61 W6        30.14S
$$

KYZ035-036-041-042-044-050-067-078-099-061900
...CENTRAL KENTUCKY...

CITY           SKY/WX    TMP DP  RH WIND       PRES   REMARKS
MT STERLING*   PTSUNNY   81  68  65 SW7       30.13F
FLEMING/MASON* MOSUNNY   81  66  61 W9        30.12S
DANVILLE*      PTSUNNY   82  68  61 SW8       30.13S
RICHMOND*      PTSUNNY   81  64  57 W5        30.12S
LEXINGTON      MOSUNNY   82  66  58 SW9       30.11F
6HR MIN TEMP:  67; 6HR MAX TEMP:  82;

FRANKFORT      PTSUNNY   81  67  62 SW8       30.09F
6HR MIN TEMP:  64; 6HR MAX TEMP:  83;

$$

KYZ091>093-OHZ055-061-077-WVZ005-015-034-035-042-061900
...SOUTHERN OHIO/WEST VIRGINIA...

CITY           SKY/WX    TMP DP  RH WIND       PRES   REMARKS
COVINGTON      MOSUNNY   82  66  58 VRB5      30.10S
COLUMBUS       MOSUNNY   82  64  54 VRB3      30.05F
DAYTON         MOSUNNY   82  63  52 SW9       30.09F
WILMINGTON     SUNNY     80  59  48 W9        30.09F
HUNTINGTON     PTSUNNY   79  68  69 SW7       30.09R
CHARLESTON     PTSUNNY   75  67  76 SW12      30.09F HAZE
PINEVILLE*     DRIZZLE   69  68  97 MISG      30.21F
BECKLEY        CLOUDY    68  63  84 SW10      30.18F
BLUEFIELD      PTSUNNY   73  62  68 NW9       30.20S
$$

VAZ002-007-008-TNZ017-027-036-066-071-061900
...SOUTHWEST VIRGINIA/EAST TENNESSEE...

CITY           SKY/WX    TMP DP  RH WIND       PRES   REMARKS
WISE*          PTSUNNY   73  61  64 W3        30.22F
JONESVILLE*      N/A    N/A N/A N/A MISG        N/A
ABINGDON*      CLOUDY    76  63  63 W10G20    30.19S
BRISTOL        PTSUNNY   80  64  58 W10       30.16F
KNOXVILLE      PTSUNNY   80  68  66 SW7       30.14F
OAK RIDGE      MOSUNNY   83  68  60 VRB7      30.15F
CROSSVILLE     MOSUNNY   80  64  58 VRB7      30.19F
NASHVILLE      MOSUNNY   83  72  69 SW8G18    30.14F
$$

...KEY TO REMARKS...
VSB - VISIBILITY IN MILES
WCI - WIND CHILL INDEX
HX  - HEAT INDEX

$$



USA.gov is the U.S. government's official web portal to all federal, state and local government web resources and services.